,,Stat5,,Stat1,,Stat2,,Stat3,,Stat4,,Wind1,,Wind1,
time,status,PA1M_AVG,status,PR1M_SUM,status,RH1M_AVG,status,SR1M_AVG,status,TA1M_AVG,status,W1dAve1m,status,W1sAve1m,
2002-05-28, 00:00:00,VALID,919.605,VALID,0,VALID,97.4189,VALID,-0.0169808,VALID,20.1187,VALID,83,VALID,0.116571,
2002-05-28, 00:01:00,VALID,919.605,VALID,0,VALID,97.3668,VALID,-0.0169808,VALID,20.0961,VALID,83,VALID,0.0282118,
2002-05-28, 00:02:00,VALID,919.606,VALID,0,VALID,97.3744,VALID,0,VALID,20.0961,VALID,102,VALID,0.414982,
2002-05-28, 00:03:00,VALID,919.598,VALID,0,VALID,97.4176,VALID,-0.0169808,VALID,20.07,VALID,110,VALID,0.569922,
2002-05-28, 00:04:00,VALID,919.604,VALID,0,VALID,97.4723,VALID,0,VALID,20.0936,VALID,119,VALID,0.811553,
2002-05-28, 00:05:00,VALID,919.594,VALID,0,VALID,97.457,VALID,-0.0169808,VALID,20.0735,VALID,112,VALID,0.561607,
2002-05-28, 00:06:00,VALID,919.577,VALID,0,VALID,97.4609,VALID,-0.0169808,VALID,20.0735,VALID,113,VALID,0.499023,
2002-05-28, 00:07:00,VALID,919.557,VALID,0,VALID,97.3731,VALID,-0.0169808,VALID,20.0573,VALID,125,VALID,0.689509,
2002-05-28, 00:08:00,VALID,919.557,VALID,0,VALID,97.3146,VALID,0,VALID,20.0608,VALID,120,VALID,0.709559,
2002-05-28, 00:09:00,VALID,919.558,VALID,0,VALID,97.2828,VALID,-0.0169808,VALID,20.0541,VALID,114,VALID,0.896484,
2002-05-28, 00:10:00,VALID,919.56,VALID,0,VALID,97.279,VALID,0.0169808,VALID,20.0573,VALID,119,VALID,1.00592,
2002-05-28, 00:11:00,VALID,919.554,VALID,0,VALID,97.2828,VALID,0.0169808,VALID,20.0444,VALID,116,VALID,0.58125,
2002-05-28, 00:12:00,VALID,919.56,VALID,0,VALID,97.3134,VALID,0,VALID,20.0476,VALID,117,VALID,0.800195,
2002-05-28, 00:13:00,VALID,919.551,VALID,0,VALID,97.3121,VALID,0,VALID,20.0508,VALID,118,VALID,0.853571,
2002-05-28, 00:14:00,VALID,919.534,VALID,0,VALID,97.3413,VALID,0.0169808,VALID,20.0444,VALID,124,VALID,0.706801,
2002-05-28, 00:15:00,VALID,919.531,VALID,0,VALID,97.4265,VALID,0.0339617,VALID,20.0449,VALID,124,VALID,0.793555,
2002-05-28, 00:16:00,VALID,919.506,VALID,0,VALID,97.4748,VALID,0,VALID,20.0382,VALID,119,VALID,0.780777,
2002-05-28, 00:17:00,VALID,919.491,VALID,0,VALID,97.5626,VALID,0,VALID,20.0414,VALID,113,VALID,1.11004,
2002-05-28, 00:18:00,VALID,919.48,VALID,0,VALID,97.6033,VALID,-0.0169808,VALID,20.0411,VALID,115,VALID,1.30762,
2002-05-28, 00:19:00,VALID,919.48,VALID,0,VALID,97.6224,VALID,0,VALID,20.0417,VALID,116,VALID,1.08772,
2002-05-28, 00:20:00,VALID,919.466,VALID,0,VALID,97.6236,VALID,0,VALID,20.028,VALID,112,VALID,1.06778,
2002-05-28, 00:21:00,VALID,919.442,VALID,0,VALID,97.5588,VALID,0.0339617,VALID,20.0195,VALID,103,VALID,1.19238,
2002-05-28, 00:22:00,VALID,919.42,VALID,0,VALID,97.5295,VALID,0,VALID,19.9765,VALID,106,VALID,0.770833,
2002-05-28, 00:23:00,VALID,919.409,VALID,0,VALID,97.4685,VALID,0,VALID,19.9805,VALID,112,VALID,0.901563,
2002-05-28, 00:24:00,VALID,919.39,VALID,0,VALID,97.3731,VALID,0,VALID,19.938,VALID,110,VALID,1.03867,
2002-05-28, 00:25:00,VALID,919.382,VALID,0,VALID,97.2727,VALID,0.0169808,VALID,19.8993,VALID,110,VALID,1.31562,
2002-05-28, 00:26:00,VALID,919.37,VALID,0,VALID,97.2193,VALID,0,VALID,19.9025,VALID,111,VALID,1.40809,
2002-05-28, 00:27:00,VALID,919.364,VALID,0,VALID,97.2243,VALID,-0.0169808,VALID,19.8697,VALID,113,VALID,1.45117,
2002-05-28, 00:28:00,VALID,919.363,VALID,0,VALID,97.2269,VALID,0,VALID,19.8799,VALID,111,VALID,1.15507,
2002-05-28, 00:29:00,VALID,919.355,VALID,0,VALID,97.2879,VALID,0.0169808,VALID,19.8769,VALID,122,VALID,1.02121,
2002-05-28, 00:30:00,VALID,919.332,VALID,0,VALID,97.3553,VALID,0,VALID,19.8702,VALID,122,VALID,1.02344,
2002-05-28, 00:31:00,VALID,919.328,VALID,0,VALID,97.4087,VALID,0,VALID,19.8709,VALID,132,VALID,1.12545,
2002-05-28, 00:32:00,VALID,919.305,VALID,0,VALID,97.4952,VALID,0.0169808,VALID,19.8702,VALID,138,VALID,0.922794,
2002-05-28, 00:33:00,VALID,919.288,VALID,0,VALID,97.6211,VALID,0,VALID,19.8809,VALID,124,VALID,1.01992,
2002-05-28, 00:34:00,VALID,919.285,VALID,0,VALID,97.719,VALID,0,VALID,19.8742,VALID,111,VALID,0.892756,
2002-05-28, 00:35:00,VALID,919.255,VALID,0,VALID,97.7737,VALID,0,VALID,19.8702,VALID,137,VALID,0.855134,
2002-05-28, 00:36:00,VALID,919.236,VALID,0,VALID,97.8296,VALID,-0.0339617,VALID,19.8774,VALID,146,VALID,0.754102,
2002-05-28, 00:37:00,VALID,919.223,VALID,0,VALID,97.8958,VALID,-0.0169808,VALID,19.867,VALID,142,VALID,0.797098,
2002-05-28, 00:38:00,VALID,919.21,VALID,0,VALID,97.9809,VALID,0.0169808,VALID,19.8901,VALID,144,VALID,0.887638,
2002-05-28, 00:39:00,VALID,919.19,VALID,0,VALID,98.0852,VALID,-0.0169808,VALID,19.8968,VALID,135,VALID,1.06777,
2002-05-28, 00:40:00,VALID,919.174,VALID,0,VALID,98.1641,VALID,-0.101885,VALID,19.9105,VALID,136,VALID,1.31061,
2002-05-28, 00:41:00,VALID,919.153,VALID,0,VALID,98.2251,VALID,-0.101885,VALID,19.9169,VALID,142,VALID,1.21406,
2002-05-28, 00:42:00,VALID,919.146,VALID,0,VALID,98.2861,VALID,-0.101885,VALID,19.9169,VALID,154,VALID,1.30859,
2002-05-28, 00:43:00,VALID,919.145,VALID,0,VALID,98.3332,VALID,-0.101885,VALID,19.9107,VALID,140,VALID,1.21808,
2002-05-28, 00:44:00,VALID,919.13,VALID,0,VALID,98.3968,VALID,-0.101885,VALID,19.8975,VALID,141,VALID,1.46324,
2002-05-28, 00:45:00,VALID,919.123,VALID,0,VALID,98.4896,VALID,-0.101885,VALID,19.901,VALID,145,VALID,1.63477,
2002-05-28, 00:46:00,VALID,919.106,VALID,0,VALID,98.5392,VALID,-0.101885,VALID,19.894,VALID,146,VALID,1.01018,
2002-05-28, 00:47:00,VALID,919.09,VALID,0,VALID,98.5862,VALID,-0.101885,VALID,19.8913,VALID,154,VALID,0.874107,
2002-05-28, 00:48:00,VALID,919.084,VALID,0,VALID,98.6295,VALID,-0.0849042,VALID,19.8747,VALID,168,VALID,1.08105,
2002-05-28, 00:49:00,VALID,919.059,VALID,0,VALID,98.6524,VALID,-0.0849042,VALID,19.8784,VALID,150,VALID,1.03862,
2002-05-28, 00:50:00,VALID,919.048,VALID,0,VALID,98.6867,VALID,-0.0849042,VALID,19.869,VALID,167,VALID,0.630055,
2002-05-28, 00:51:00,VALID,919.03,VALID,0,VALID,98.7172,VALID,-0.101885,VALID,19.8491,VALID,158,VALID,1.07578,
2002-05-28, 00:52:00,VALID,919.014,VALID,0,VALID,98.7592,VALID,-0.101885,VALID,19.8461,VALID,171,VALID,1.09162,
2002-05-28, 00:53:00,VALID,918.989,VALID,0,VALID,98.7782,VALID,-0.101885,VALID,19.8565,VALID,164,VALID,1.12589,
2002-05-28, 00:54:00,VALID,918.983,VALID,0,VALID,98.8177,VALID,-0.101885,VALID,19.8424,VALID,163,VALID,1.2043,
2002-05-28, 00:55:00,VALID,918.978,VALID,0,VALID,98.8393,VALID,-0.101885,VALID,19.8297,VALID,164,VALID,0.982813,
2002-05-28, 00:56:00,VALID,918.961,VALID,0,VALID,98.8647,VALID,-0.101885,VALID,19.8329,VALID,172,VALID,1.24747,
2002-05-28, 00:57:00,VALID,918.951,VALID,0,VALID,98.8927,VALID,-0.0849042,VALID,19.8299,VALID,166,VALID,1.2127,
2002-05-28, 00:58:00,VALID,918.943,VALID,0,VALID,98.9016,VALID,-0.101885,VALID,19.8307,VALID,167,VALID,1.26965,
2002-05-28, 00:59:00,VALID,918.921,VALID,0,VALID,98.8952,VALID,-0.101885,VALID,19.8275,VALID,152,VALID,0.808705,
2002-05-28, 01:00:00,VALID,918.913,VALID,0,VALID,98.9067,VALID,-0.101885,VALID,19.7976,VALID,162,VALID,0.725,
2002-05-28, 01:01:00,VALID,918.895,VALID,0,VALID,98.9168,VALID,-0.101885,VALID,19.7847,VALID,157,VALID,1.02723,
2002-05-28, 01:02:00,VALID,918.88,VALID,0,VALID,98.9334,VALID,-0.101885,VALID,19.7845,VALID,153,VALID,0.894531,
2002-05-28, 01:03:00,VALID,918.878,VALID,0,VALID,98.9308,VALID,-0.118866,VALID,19.7683,VALID,158,VALID,0.686719,
2002-05-28, 01:04:00,VALID,918.863,VALID,0,VALID,98.9448,VALID,-0.0849042,VALID,19.7616,VALID,146,VALID,0.63589,
2002-05-28, 01:05:00,VALID,918.862,VALID,0,VALID,98.9575,VALID,-0.0849042,VALID,19.7556,VALID,141,VALID,0.354911,
2002-05-28, 01:06:00,VALID,918.849,VALID,0,VALID,98.9652,VALID,-0.0849042,VALID,19.7422,VALID,156,VALID,0.498047,
2002-05-28, 01:07:00,VALID,918.837,VALID,0,VALID,98.9753,VALID,-0.0849042,VALID,19.7529,VALID,152,VALID,0.578348,
2002-05-28, 01:08:00,VALID,918.812,VALID,0,VALID,98.9779,VALID,-0.101885,VALID,19.7392,VALID,159,VALID,0.412224,
2002-05-28, 01:09:00,VALID,918.808,VALID,0,VALID,98.9753,VALID,-0.0509425,VALID,19.7454,VALID,142,VALID,0.647266,
2002-05-28, 01:10:00,VALID,918.79,VALID,0,VALID,98.9626,VALID,0.0169808,VALID,19.7512,VALID,125,VALID,0.0660511,
2002-05-28, 01:11:00,VALID,918.786,VALID,0,VALID,98.941,VALID,0,VALID,19.7477,VALID,97,VALID,0.364732,
2002-05-28, 01:12:00,VALID,918.778,VALID,0,VALID,98.9118,VALID,0,VALID,19.7348,VALID,67,VALID,0.451367,
2002-05-28, 01:13:00,VALID,918.757,VALID,0,VALID,98.8533,VALID,0,VALID,19.7054,VALID,43,VALID,0.415848,
2002-05-28, 01:14:00,VALID,918.757,VALID,0,VALID,98.8011,VALID,0.0339617,VALID,19.6858,VALID,66,VALID,0.625,
2002-05-28, 01:15:00,VALID,918.755,VALID,0,VALID,98.7592,VALID,0.0339617,VALID,19.6535,VALID,49,VALID,0.749023,
2002-05-28, 01:16:00,VALID,918.736,VALID,0,VALID,98.7337,VALID,0,VALID,19.6411,VALID,45,VALID,0.538116,
2002-05-28, 01:17:00,VALID,918.726,VALID,0,VALID,98.6651,VALID,0.0339617,VALID,19.6217,VALID,69,VALID,0.554036,
2002-05-28, 01:18:00,VALID,918.726,VALID,0,VALID,98.6447,VALID,0.0169808,VALID,19.6088,VALID,58,VALID,0.673047,
2002-05-28, 01:19:00,VALID,918.713,VALID,0,VALID,98.6104,VALID,0,VALID,19.5924,VALID,59,VALID,0.58683,
2002-05-28, 01:20:00,VALID,918.696,VALID,0,VALID,98.5443,VALID,0.0169808,VALID,19.5765,VALID,63,VALID,0.448529,
2002-05-28, 01:21:00,VALID,918.699,VALID,0,VALID,98.5036,VALID,0.0169808,VALID,19.5638,VALID,67,VALID,0.24043,
2002-05-28, 01:22:00,VALID,918.69,VALID,0,VALID,98.5163,VALID,0.0169808,VALID,19.567,VALID,67,VALID,0.0878314,
2002-05-28, 01:23:00,VALID,918.683,VALID,0,VALID,98.5163,VALID,0.0339617,VALID,19.5534,VALID,92,VALID,0.215179,
2002-05-28, 01:24:00,VALID,918.677,VALID,0,VALID,98.6333,VALID,0,VALID,19.5964,VALID,148,VALID,0.784766,
2002-05-28, 01:25:00,VALID,918.669,VALID,0,VALID,98.6651,VALID,0,VALID,19.6284,VALID,156,VALID,0.702455,
2002-05-28, 01:26:00,VALID,918.649,VALID,0,VALID,98.6333,VALID,0.0169808,VALID,19.6547,VALID,171,VALID,0.465993,
2002-05-28, 01:27:00,VALID,918.642,VALID,0,VALID,98.6485,VALID,0,VALID,19.6642,VALID,174,VALID,0.418164,
2002-05-28, 01:28:00,VALID,918.624,VALID,0,VALID,98.6638,VALID,0.0339617,VALID,19.6438,VALID,151,VALID,0.693419,
2002-05-28, 01:29:00,VALID,918.612,VALID,0,VALID,98.7108,VALID,0.0169808,VALID,19.6833,VALID,168,VALID,0.979241,
2002-05-28, 01:30:00,VALID,918.592,VALID,0,VALID,98.7185,VALID,0,VALID,19.693,VALID,165,VALID,1.10176,
2002-05-28, 01:31:00,VALID,918.578,VALID,0,VALID,98.7439,VALID,0.0509425,VALID,19.7027,VALID,150,VALID,1.32991,
2002-05-28, 01:32:00,VALID,918.574,VALID,0,VALID,98.7897,VALID,0,VALID,19.7156,VALID,155,VALID,1.24908,
2002-05-28, 01:33:00,VALID,918.553,VALID,0,VALID,98.8011,VALID,0.0169808,VALID,19.7089,VALID,148,VALID,1.32109,
2002-05-28, 01:34:00,VALID,918.547,VALID,0,VALID,98.791,VALID,0,VALID,19.7124,VALID,154,VALID,0.985322,
2002-05-28, 01:35:00,VALID,918.537,VALID,0,VALID,98.8609,VALID,0,VALID,19.7288,VALID,154,VALID,1.59286,
2002-05-28, 01:36:00,VALID,918.513,VALID,0,VALID,98.8406,VALID,-0.0169808,VALID,19.7221,VALID,156,VALID,0.779688,
2002-05-28, 01:37:00,VALID,918.511,VALID,0,VALID,98.8469,VALID,0,VALID,19.7223,VALID,157,VALID,0.895312,
2002-05-28, 01:38:00,VALID,918.49,VALID,0,VALID,98.8901,VALID,0.0509425,VALID,19.7089,VALID,158,VALID,1.64729,
2002-05-28, 01:39:00,VALID,918.497,VALID,0,VALID,98.8901,VALID,0,VALID,19.7126,VALID,156,VALID,1.18691,
2002-05-28, 01:40:00,VALID,918.48,VALID,0,VALID,98.8723,VALID,0,VALID,19.693,VALID,169,VALID,1.18134,
2002-05-28, 01:41:00,VALID,918.467,VALID,0,VALID,98.8914,VALID,0.0169808,VALID,19.7,VALID,154,VALID,1.10268,
2002-05-28, 01:42:00,VALID,918.453,VALID,0,VALID,98.9029,VALID,0.0169808,VALID,19.6933,VALID,159,VALID,1.64863,
2002-05-28, 01:43:00,VALID,918.433,VALID,0,VALID,98.9232,VALID,-0.0169808,VALID,19.6898,VALID,153,VALID,1.20513,
2002-05-28, 01:44:00,VALID,918.425,VALID,0,VALID,98.9067,VALID,0,VALID,19.6935,VALID,155,VALID,1.36305,
2002-05-28, 01:45:00,VALID,918.412,VALID,0,VALID,98.9118,VALID,0,VALID,19.6935,VALID,148,VALID,1.06914,
2002-05-28, 01:46:00,VALID,918.402,VALID,0,VALID,98.8787,VALID,0,VALID,19.6836,VALID,147,VALID,1.51989,
2002-05-28, 01:47:00,VALID,918.374,VALID,0,VALID,98.8812,VALID,0,VALID,19.6739,VALID,151,VALID,1.49152,
2002-05-28, 01:48:00,VALID,918.355,VALID,0,VALID,98.8634,VALID,0,VALID,19.6612,VALID,146,VALID,1.16699,
2002-05-28, 01:49:00,VALID,918.344,VALID,0,VALID,98.8622,VALID,0.0169808,VALID,19.6513,VALID,149,VALID,1.0375,
2002-05-28, 01:50:00,VALID,918.333,VALID,0,VALID,98.8762,VALID,0,VALID,19.6483,VALID,105,VALID,0.638327,
2002-05-28, 01:51:00,VALID,918.308,VALID,0,VALID,98.8609,VALID,0,VALID,19.6383,VALID,117,VALID,0.737109,
2002-05-28, 01:52:00,VALID,918.3,VALID,0,VALID,98.8494,VALID,0,VALID,19.6085,VALID,139,VALID,0.654119,
2002-05-28, 01:53:00,VALID,918.297,VALID,0,VALID,98.7986,VALID,-0.0169808,VALID,19.6195,VALID,102,VALID,0.546875,
2002-05-28, 01:54:00,VALID,918.289,VALID,0,VALID,98.8024,VALID,-0.0169808,VALID,19.5909,VALID,99,VALID,0.851563,
2002-05-28, 01:55:00,VALID,918.27,VALID,0,VALID,98.8075,VALID,-0.0849042,VALID,19.5752,VALID,104,VALID,1.00625,
2002-05-28, 01:56:00,VALID,918.25,VALID,0,VALID,98.81,VALID,-0.101885,VALID,19.572,VALID,96,VALID,0.519531,
2002-05-28, 01:57:00,VALID,918.231,VALID,0,VALID,98.7515,VALID,-0.101885,VALID,19.5365,VALID,59,VALID,0.484961,
2002-05-28, 01:58:00,VALID,918.212,VALID,0,VALID,98.6854,VALID,-0.118866,VALID,19.4979,VALID,98,VALID,0.541193,
2002-05-28, 01:59:00,VALID,918.197,VALID,0,VALID,98.6485,VALID,-0.0849042,VALID,19.4589,VALID,70,VALID,0.407813,
2002-05-28, 02:00:00,VALID,918.172,VALID,0,VALID,98.5951,VALID,-0.0679233,VALID,19.4363,VALID,53,VALID,0.371484,
2002-05-28, 02:01:00,VALID,918.159,VALID,0,VALID,98.5303,VALID,0,VALID,19.3866,VALID,62,VALID,0.654241,
2002-05-28, 02:02:00,VALID,918.148,VALID,0,VALID,98.5646,VALID,0,VALID,19.3638,VALID,78,VALID,0.668888,
2002-05-28, 02:03:00,VALID,918.139,VALID,0,VALID,98.6396,VALID,0,VALID,19.3573,VALID,96,VALID,0.644531,
2002-05-28, 02:04:00,VALID,918.126,VALID,0,VALID,98.6218,VALID,0.0169808,VALID,19.3638,VALID,48,VALID,0.666903,
2002-05-28, 02:05:00,VALID,918.12,VALID,0,VALID,98.5366,VALID,0,VALID,19.3124,VALID,61,VALID,0.950223,
2002-05-28, 02:06:00,VALID,918.108,VALID,0,VALID,98.6078,VALID,0,VALID,19.3124,VALID,52,VALID,1.10586,
2002-05-28, 02:07:00,VALID,918.081,VALID,0,VALID,98.5989,VALID,0.0169808,VALID,19.3024,VALID,49,VALID,1.10536,
2002-05-28, 02:08:00,VALID,918.054,VALID,0,VALID,98.5824,VALID,0,VALID,19.2803,VALID,82,VALID,0.803768,
2002-05-28, 02:09:00,VALID,918.025,VALID,0,VALID,98.6269,VALID,0.0169808,VALID,19.2577,VALID,67,VALID,0.914844,
2002-05-28, 02:10:00,VALID,917.997,VALID,0,VALID,98.6651,VALID,0,VALID,19.248,VALID,85,VALID,1.06037,
2002-05-28, 02:11:00,VALID,917.962,VALID,0,VALID,98.6854,VALID,0,VALID,19.245,VALID,78,VALID,1.11272,
2002-05-28, 02:12:00,VALID,917.929,VALID,0,VALID,98.7312,VALID,0,VALID,19.2316,VALID,95,VALID,1.11113,
2002-05-28, 02:13:00,VALID,917.904,VALID,0,VALID,98.7375,VALID,0,VALID,19.2088,VALID,110,VALID,1.0875,
2002-05-28, 02:14:00,VALID,917.875,VALID,0,VALID,98.7197,VALID,0,VALID,19.2,VALID,120,VALID,1.1119,
2002-05-28, 02:15:00,VALID,917.86,VALID,0,VALID,98.6867,VALID,-0.0169808,VALID,19.167,VALID,104,VALID,1.12598,
2002-05-28, 02:16:00,VALID,917.854,VALID,0,VALID,98.6663,VALID,-0.0169808,VALID,19.1543,VALID,105,VALID,1.21473,
2002-05-28, 02:17:00,VALID,917.835,VALID,0,VALID,98.6117,VALID,0,VALID,19.1513,VALID,92,VALID,0.972768,
2002-05-28, 02:18:00,VALID,917.833,VALID,0,VALID,98.5951,VALID,0.0169808,VALID,19.125,VALID,110,VALID,0.958398,
2002-05-28, 02:19:00,VALID,917.821,VALID,0,VALID,98.6091,VALID,0,VALID,19.1287,VALID,106,VALID,1.38973,
2002-05-28, 02:20:00,VALID,917.794,VALID,0,VALID,98.5277,VALID,0,VALID,19.1287,VALID,111,VALID,1.27551,
2002-05-28, 02:21:00,VALID,917.784,VALID,0,VALID,98.4743,VALID,-0.0169808,VALID,19.1357,VALID,114,VALID,1.1584,
2002-05-28, 02:22:00,VALID,917.764,VALID,0,VALID,98.3942,VALID,-0.0169808,VALID,19.1257,VALID,136,VALID,0.884943,
2002-05-28, 02:23:00,VALID,917.747,VALID,0,VALID,98.3357,VALID,0,VALID,19.1158,VALID,126,VALID,0.822991,
2002-05-28, 02:24:00,VALID,917.729,VALID,0,VALID,98.3472,VALID,0,VALID,19.1158,VALID,137,VALID,1.11523,
2002-05-28, 02:25:00,VALID,917.702,VALID,0,VALID,98.2671,VALID,0.0169808,VALID,19.129,VALID,136,VALID,1.09442,
2002-05-28, 02:26:00,VALID,917.691,VALID,0,VALID,98.2531,VALID,0,VALID,19.1126,VALID,141,VALID,1.17785,
2002-05-28, 02:27:00,VALID,917.665,VALID,0,VALID,98.234,VALID,0.0169808,VALID,19.1223,VALID,129,VALID,0.880078,
2002-05-28, 02:28:00,VALID,917.65,VALID,0,VALID,98.1679,VALID,0,VALID,19.1059,VALID,144,VALID,0.895597,
2002-05-28, 02:29:00,VALID,917.621,VALID,0,VALID,98.2264,VALID,0,VALID,19.1029,VALID,131,VALID,1.22545,
2002-05-28, 02:30:00,VALID,917.601,VALID,0,VALID,98.1895,VALID,-0.0339617,VALID,19.1068,VALID,128,VALID,0.947266,
2002-05-28, 02:31:00,VALID,917.588,VALID,0,VALID,98.1793,VALID,0,VALID,19.0768,VALID,132,VALID,1.04219,
2002-05-28, 02:32:00,VALID,917.566,VALID,0,VALID,98.1424,VALID,-0.0169808,VALID,19.0607,VALID,112,VALID,1.04366,
2002-05-28, 02:33:00,VALID,917.548,VALID,0,VALID,98.0547,VALID,-0.0169808,VALID,19.0547,VALID,97,VALID,0.87832,
2002-05-28, 02:34:00,VALID,917.534,VALID,0,VALID,97.9682,VALID,0,VALID,19.0348,VALID,103,VALID,0.966146,
2002-05-28, 02:35:00,VALID,917.521,VALID,0,VALID,97.9275,VALID,0.0169808,VALID,19.0318,VALID,99,VALID,0.986607,
2002-05-28, 02:36:00,VALID,917.506,VALID,0,VALID,97.8627,VALID,-0.0169808,VALID,19.0189,VALID,91,VALID,0.904297,
2002-05-28, 02:37:00,VALID,917.51,VALID,0,VALID,97.8004,VALID,0,VALID,19.0224,VALID,70,VALID,0.689732,
2002-05-28, 02:38:00,VALID,917.493,VALID,0,VALID,97.6503,VALID,0,VALID,19.0095,VALID,65,VALID,0.829274,
2002-05-28, 02:39:00,VALID,917.507,VALID,0,VALID,97.4812,VALID,-0.0339617,VALID,18.9675,VALID,74,VALID,0.704687,
2002-05-28, 02:40:00,VALID,917.49,VALID,0,VALID,97.3935,VALID,-0.0849042,VALID,18.9528,VALID,101,VALID,0.799006,
2002-05-28, 02:41:00,VALID,917.498,VALID,0,VALID,97.3935,VALID,-0.118866,VALID,18.9398,VALID,80,VALID,0.67433,
2002-05-28, 02:42:00,VALID,917.493,VALID,0,VALID,97.4036,VALID,-0.101885,VALID,18.9331,VALID,88,VALID,0.469727,
2002-05-28, 02:43:00,VALID,917.483,VALID,0,VALID,97.2917,VALID,-0.101885,VALID,18.9108,VALID,75,VALID,0.53058,
2002-05-28, 02:44:00,VALID,917.473,VALID,0,VALID,97.2409,VALID,-0.101885,VALID,18.8914,VALID,68,VALID,0.413603,
2002-05-28, 02:45:00,VALID,917.454,VALID,0,VALID,97.1913,VALID,-0.101885,VALID,18.8725,VALID,69,VALID,0.180078,
2002-05-28, 02:46:00,VALID,917.438,VALID,0,VALID,97.246,VALID,-0.101885,VALID,18.86,VALID,86,VALID,0.664773,
2002-05-28, 02:47:00,VALID,917.408,VALID,0,VALID,97.3782,VALID,-0.101885,VALID,18.8598,VALID,69,VALID,0.541518,
2002-05-28, 02:48:00,VALID,917.391,VALID,0,VALID,97.3858,VALID,-0.101885,VALID,18.8598,VALID,62,VALID,0.43457,
2002-05-28, 02:49:00,VALID,917.396,VALID,0,VALID,97.3197,VALID,-0.118866,VALID,18.8531,VALID,41,VALID,0.420312,
2002-05-28, 02:50:00,VALID,917.394,VALID,0,VALID,97.1875,VALID,-0.118866,VALID,18.8109,VALID,52,VALID,0.370864,
2002-05-28, 02:51:00,VALID,917.392,VALID,0,VALID,97.2498,VALID,-0.118866,VALID,18.7945,VALID,52,VALID,0.353516,
2002-05-28, 02:52:00,VALID,917.383,VALID,0,VALID,97.3184,VALID,-0.101885,VALID,18.7915,VALID,53,VALID,0.347538,
2002-05-28, 02:53:00,VALID,917.381,VALID,0,VALID,97.4456,VALID,-0.101885,VALID,18.8079,VALID,54,VALID,0.324777,
2002-05-28, 02:54:00,VALID,917.377,VALID,0,VALID,97.5079,VALID,-0.0849042,VALID,18.8166,VALID,63,VALID,0.44375,
2002-05-28, 02:55:00,VALID,917.376,VALID,0,VALID,97.6185,VALID,-0.0339617,VALID,18.8457,VALID,90,VALID,0.541071,
2002-05-28, 02:56:00,VALID,917.37,VALID,0,VALID,97.588,VALID,-0.0169808,VALID,18.8807,VALID,95,VALID,0.4267,
2002-05-28, 02:57:00,VALID,917.371,VALID,0,VALID,97.4825,VALID,-0.0169808,VALID,18.8902,VALID,102,VALID,0.42832,
2002-05-28, 02:58:00,VALID,917.374,VALID,0,VALID,97.4329,VALID,-0.0169808,VALID,18.9133,VALID,115,VALID,0.452178,
2002-05-28, 02:59:00,VALID,917.377,VALID,0,VALID,97.3095,VALID,-0.0339617,VALID,18.9262,VALID,119,VALID,0.228795,
2002-05-28, 03:00:00,VALID,917.38,VALID,0,VALID,97.1849,VALID,-0.0339617,VALID,18.9197,VALID,140,VALID,0.342969,
2002-05-28, 03:01:00,VALID,917.374,VALID,0,VALID,97.0807,VALID,-0.0339617,VALID,18.9294,VALID,140,VALID,0.0526786,
2002-05-28, 03:02:00,VALID,917.38,VALID,0,VALID,96.9751,VALID,-0.0169808,VALID,18.9168,VALID,140,VALID,0.0581342,
2002-05-28, 03:03:00,VALID,917.349,VALID,0,VALID,96.1943,VALID,-0.0169808,VALID,18.8032,VALID,78,VALID,0.255078,
2002-05-28, 03:04:00,VALID,917.334,VALID,0,VALID,95.9934,VALID,-0.0339617,VALID,18.674,VALID,39,VALID,0.382339,
2002-05-28, 03:05:00,VALID,917.347,VALID,0,VALID,96.3317,VALID,-0.0169808,VALID,18.6517,VALID,40,VALID,0.251339,
2002-05-28, 03:06:00,VALID,917.337,VALID,0,VALID,96.5873,VALID,-0.0509425,VALID,18.6487,VALID,40,VALID,0.0570313,
2002-05-28, 03:07:00,VALID,917.329,VALID,0,VALID,96.7526,VALID,-0.0169808,VALID,18.6385,VALID,40,VALID,0.215402,
2002-05-28, 03:08:00,VALID,917.342,VALID,0,VALID,97.0196,VALID,-0.0169808,VALID,18.6418,VALID,40,VALID,0.157169,
2002-05-28, 03:09:00,VALID,917.329,VALID,0,VALID,97.1188,VALID,0,VALID,18.6551,VALID,40,VALID,0.364258,
2002-05-28, 03:10:00,VALID,917.324,VALID,0,VALID,97.0692,VALID,0,VALID,18.6484,VALID,40,VALID,0.362689,
2002-05-28, 03:11:00,VALID,917.324,VALID,0,VALID,96.881,VALID,0,VALID,18.6166,VALID,43,VALID,0.47433,
2002-05-28, 03:12:00,VALID,917.313,VALID,0,VALID,96.9128,VALID,-0.0169808,VALID,18.5645,VALID,51,VALID,0.650977,
2002-05-28, 03:13:00,VALID,917.306,VALID,0,VALID,97.1646,VALID,-0.0509425,VALID,18.555,VALID,56,VALID,0.674554,
2002-05-28, 03:14:00,VALID,917.289,VALID,0,VALID,97.2828,VALID,-0.0169808,VALID,18.5518,VALID,56,VALID,0.605469,
2002-05-28, 03:15:00,VALID,917.284,VALID,0,VALID,97.2841,VALID,-0.0339617,VALID,18.5451,VALID,63,VALID,0.664258,
2002-05-28, 03:16:00,VALID,917.272,VALID,0,VALID,97.5232,VALID,-0.0169808,VALID,18.555,VALID,72,VALID,0.79072,
2002-05-28, 03:17:00,VALID,917.251,VALID,0,VALID,97.7165,VALID,-0.0509425,VALID,18.5809,VALID,77,VALID,0.870089,
2002-05-28, 03:18:00,VALID,917.235,VALID,0,VALID,97.8131,VALID,-0.0169808,VALID,18.6102,VALID,80,VALID,1.07617,
2002-05-28, 03:19:00,VALID,917.231,VALID,0,VALID,97.8042,VALID,-0.0509425,VALID,18.6293,VALID,82,VALID,1.07835,
2002-05-28, 03:20:00,VALID,917.216,VALID,0,VALID,97.8322,VALID,-0.0169808,VALID,18.6484,VALID,84,VALID,1.16682,
2002-05-28, 03:21:00,VALID,917.209,VALID,0,VALID,97.8703,VALID,-0.0339617,VALID,18.6745,VALID,99,VALID,1.00859,
2002-05-28, 03:22:00,VALID,917.211,VALID,0,VALID,97.9021,VALID,-0.0169808,VALID,18.7232,VALID,103,VALID,0.924006,
2002-05-28, 03:23:00,VALID,917.21,VALID,0,VALID,97.7991,VALID,-0.0679233,VALID,18.7331,VALID,96,VALID,0.895089,
2002-05-28, 03:24:00,VALID,917.204,VALID,0,VALID,97.8169,VALID,-0.0509425,VALID,18.7294,VALID,98,VALID,1.17676,
2002-05-28, 03:25:00,VALID,917.202,VALID,0,VALID,97.5829,VALID,-0.0339617,VALID,18.7262,VALID,92,VALID,0.927232,
2002-05-28, 03:26:00,VALID,917.214,VALID,0,VALID,97.3324,VALID,-0.0339617,VALID,18.6586,VALID,96,VALID,0.963471,
2002-05-28, 03:27:00,VALID,917.218,VALID,0,VALID,97.2421,VALID,-0.0339617,VALID,18.6132,VALID,107,VALID,0.753516,
2002-05-28, 03:28:00,VALID,917.226,VALID,0,VALID,97.4812,VALID,-0.0509425,VALID,18.5684,VALID,92,VALID,0.732718,
2002-05-28, 03:29:00,VALID,917.226,VALID,0,VALID,97.5867,VALID,-0.0339617,VALID,18.5423,VALID,85,VALID,0.812054,
2002-05-28, 03:30:00,VALID,917.229,VALID,0,VALID,97.8309,VALID,-0.0509425,VALID,18.5292,VALID,109,VALID,1.13828,
2002-05-28, 03:31:00,VALID,917.236,VALID,0,VALID,98.1819,VALID,-0.0509425,VALID,18.5486,VALID,106,VALID,1.05513,
2002-05-28, 03:32:00,VALID,917.234,VALID,0,VALID,98.3014,VALID,-0.0339617,VALID,18.559,VALID,95,VALID,1.09858,
2002-05-28, 03:33:00,VALID,917.244,VALID,0,VALID,98.4845,VALID,-0.0339617,VALID,18.5324,VALID,106,VALID,1.17754,
2002-05-28, 03:34:00,VALID,917.249,VALID,0,VALID,98.6549,VALID,-0.0339617,VALID,18.5553,VALID,96,VALID,1.16903,